| time (UTC) | temp F | wind direction | speed knots | gust knots | rain 1hr in | rain 24hr in | rain mn in | humidity % | barometer mb |
| 20260507080540 | 36 | 203 | 0.9 | 3.5 | 0.00 | 0.00 | 0.00 | 100 | |
| 20260507074539 | 35 | 354 | 0.0 | 0.0 | 0.00 | 0.00 | 0.00 | 100 | |
| 20260507072539 | 35 | 354 | 0.0 | 0.0 | 0.00 | 0.00 | 0.00 | 100 | |
| 20260507070537 | 37 | 153 | 0.0 | 0.0 | 0.00 | 0.00 | 0.00 | 100 | |
| 20260507064536 | 35 | 153 | 0.0 | 0.0 | 0.00 | 0.00 | 0.00 | 100 | |
| 20260507062535 | 35 | 153 | 0.0 | 0.0 | 0.00 | 0.00 | 0.00 | 100 | |
| 20260507060533 | 35 | 153 | 0.0 | 0.0 | 0.00 | 0.00 | 0.00 | 100 | |
| 20260507054532 | 35 | 153 | 0.0 | 0.0 | 0.00 | 0.00 | 0.00 | 100 | |
| 20260507052531 | 35 | 153 | 0.0 | 2.6 | 0.00 | 0.00 | 0.00 | 100 | |
| 20260507050529 | 34 | 143 | 0.9 | 1.7 | 0.00 | 0.00 | 0.00 | 100 | |
| 20260507044528 | 34 | 154 | 1.7 | 1.7 | 0.00 | 0.00 | 0.00 | 100 | |
| 20260507042527 | 34 | 120 | 0.0 | 0.0 | 0.00 | 0.00 | 0.00 | 100 | |
| 20260507040526 | 34 | 99 | 0.0 | 2.6 | 0.00 | 0.00 | 0.00 | 100 | |
| 20260507034525 | 34 | 80 | 0.0 | 0.0 | 0.00 | 0.00 | 0.00 | 100 | |
| 20260507032524 | 34 | 80 | 0.0 | 2.6 | 0.00 | 0.00 | 0.00 | 100 | |
| 20260507030523 | 35 | 292 | 0.0 | 0.0 | 0.00 | 0.00 | 0.00 | 100 | |
| 20260507024521 | 35 | 292 | 0.0 | 0.0 | 0.00 | 0.00 | 0.00 | 100 | |
| 20260507022520 | 35 | 292 | 0.0 | 0.0 | 0.00 | 0.00 | 0.00 | 100 | |
| 20260507020519 | 35 | 292 | 0.0 | 0.0 | 0.00 | 0.00 | 0.00 | 100 | |
| 20260507014518 | 36 | 292 | 0.0 | 0.0 | 0.00 | 0.00 | 0.00 | 100 | |
| 20260507012517 | 36 | 292 | 0.0 | 0.0 | 0.00 | 0.00 | 0.00 | 100 | |
| 20260507010516 | 36 | 292 | 0.0 | 0.0 | 0.00 | 0.00 | 0.00 | 100 | |
| 20260507004516 | 36 | 292 | 0.0 | 0.0 | 0.00 | 0.00 | 0.00 | 100 | |
| 20260507002513 | 36 | 292 | 0.0 | 0.0 | 0.00 | 0.00 | 0.00 | 100 | |
| 20260507000512 | 36 | 292 | 0.0 | 0.0 | 0.00 | 0.00 | 0.00 | 100 | |
| 20260506234511 | 37 | 292 | 0.0 | 0.0 | 0.00 | 0.00 | 0.00 | 100 | |
| 20260506232510 | 37 | 292 | 0.0 | 0.0 | 0.00 | 0.00 | 0.00 | 100 | |
| 20260506230509 | 37 | 292 | 0.0 | 0.0 | 0.00 | 0.00 | 0.00 | 100 | |
| 20260506224508 | 37 | 292 | 0.0 | 0.0 | 0.00 | 0.00 | 0.00 | 100 | |
| 20260506220505 | 37 | 292 | 0.0 | 0.0 | 0.00 | 0.00 | 0.00 | 100 | |
| 20260506214504 | 37 | 292 | 0.0 | 0.0 | 0.00 | 0.00 | 0.00 | 100 | |
| 20260506212503 | 37 | 355 | 0.0 | 0.0 | 0.00 | 0.00 | 0.00 | 100 | |
| 20260506210502 | 37 | 327 | 6.1 | 7.8 | 0.00 | 0.00 | 0.00 | 100 | |
| 20260506204501 | 38 | 322 | 0.0 | 5.2 | 0.00 | 0.00 | 0.00 | 100 | |
| 20260506202501 | 39 | 316 | 2.6 | 5.2 | 0.00 | 0.00 | 0.00 | 100 | |
| 20260506200458 | 40 | 317 | 0.0 | 0.0 | 0.00 | 0.00 | 0.00 | 100 | |
| 20260506194457 | 41 | 333 | 0.0 | 2.6 | 0.00 | 0.00 | 0.00 | 100 | |
| 20260506192456 | 43 | 157 | 0.0 | 0.0 | 0.00 | 0.00 | 0.00 | 100 | |
| 20260506190455 | 43 | 288 | 0.0 | 0.0 | 0.00 | 0.00 | 0.00 | 100 | |
| 20260506184454 | 43 | 282 | 0.0 | 2.6 | 0.00 | 0.00 | 0.00 | 100 | |
| 20260506182453 | 45 | 289 | 1.7 | 6.1 | 0.00 | 0.00 | 0.00 | 100 | |
| 20260506180452 | 46 | 320 | 0.0 | 8.7 | 0.00 | 0.00 | 0.00 | 100 | |
| 20260506174450 | 46 | 116 | 0.0 | 10.4 | 0.00 | 0.00 | 0.00 | 100 | |
| 20260506172449 | 47 | 293 | 10.4 | 15.6 | 0.00 | 0.00 | 0.00 | 100 | |
| 20260506170448 | 55 | 144 | 5.2 | 6.1 | 0.00 | 0.00 | 0.00 | 100 | |
| 20260506164447 | 50 | 165 | 7.8 | 9.6 | 0.00 | 0.00 | 0.00 | 100 | |
| 20260506162446 | 53 | 305 | 3.5 | 7.0 | 0.00 | 0.00 | 0.00 | 100 | |
| 20260506160445 | 57 | 144 | 11.3 | 11.3 | 0.00 | 0.00 | 0.00 | 100 | |
| 20260506154443 | 57 | 149 | 5.2 | 12.2 | 0.00 | 0.00 | 0.00 | 100 | |
| 20260506152442 | 56 | 180 | 7.0 | 12.2 | 0.00 | 0.00 | 0.00 | 100 | |
| 20260506150441 | 57 | 188 | 0.0 | 8.7 | 0.00 | 0.00 | 0.00 | 100 | |
| 20260506144440 | 56 | 158 | 3.5 | 16.5 | 0.00 | 0.00 | 0.00 | 100 | |
| 20260506142439 | 59 | 140 | 2.6 | 6.1 | 0.00 | 0.00 | 0.00 | 100 | |
| 20260506140438 | 59 | 191 | 4.3 | 11.3 | 0.00 | 0.00 | 0.00 | 100 | |
| 20260506134437 | 60 | 175 | 0.0 | 9.6 | 0.00 | 0.00 | 0.00 | 100 | |
| 20260506130434 | 56 | 46 | 0.0 | 6.1 | 0.00 | 0.00 | 0.00 | 100 | |
| 20260506124433 | 60 | 264 | 6.1 | 13.0 | 0.00 | 0.00 | 0.00 | 100 | |
| 20260506122432 | 58 | 116 | 5.2 | 10.4 | 0.00 | 0.00 | 0.00 | 100 | |
| 20260506120431 | 57 | 338 | 3.5 | 11.3 | 0.00 | 0.00 | 0.00 | 100 | |
| 20260506114430 | 55 | 355 | 0.0 | 4.3 | 0.00 | 0.00 | 0.00 | 100 | |
| 20260506112429 | 54 | 9 | 0.0 | 6.1 | 0.00 | 0.00 | 0.00 | 100 | |
| 20260506110427 | 56 | 175 | 0.9 | 9.6 | 0.00 | 0.00 | 0.00 | 100 | |
| 20260506104426 | 52 | 291 | 5.2 | 7.8 | 0.00 | 0.00 | 0.00 | 100 | |
| 20260506102426 | 54 | 206 | 2.6 | 5.2 | 0.00 | 0.00 | 0.00 | 100 | |
| 20260506100424 | 49 | 196 | 4.3 | 13.9 | 0.00 | 0.00 | 0.00 | 100 | |
| 20260506094423 | 47 | 209 | 2.6 | 8.7 | 0.00 | 0.00 | 0.00 | 100 | |
| 20260506092422 | 46 | 268 | 0.0 | 4.3 | 0.00 | 0.00 | 0.00 | 100 | |
| 20260506090421 | 44 | 322 | 0.0 | 0.0 | 0.00 | 0.00 | 0.00 | 100 | |
| 20260506084419 | 44 | 11 | 0.0 | 0.0 | 0.00 | 0.00 | 0.00 | 100 |